GALAXY 37 (G-37)

Last updated on Mon Nov 03 2025 00:03:00 GMT+0000 (Coordinated Universal Time)

1 57493U 23112A 25306.51030242 .00000060 00000+0 00000+0 0 9994 2 57493 0.0045 300.5045 0002240 289.9868 228.2762 1.00271677 8271
UTC large
Height (km)
Speed (km/s)
/
Latitude / Longitude
Inclination (degrees)
Orbital Period (minutes)
Azimuth
Elevation
Range (km)
Doppler Factor

Next 0 passes for location: London (51.5072 / 0.1276)

Sorry there are no passes over London.